�������l�o���
Date,Time,MP-1(��Sv/h),MP-2(��Sv/h),MP-3(��Sv/h),MP-4(��Sv/h),MP-5(��Sv/h),MP-6(��Sv/h),MP-7(��Sv/h),MP-8(��Sv/h),����,����(m/s),���J
2020/04/07,00:00,0.688,0.988,0.665,1.197,0.858,0.396,0.691,0.656,���k��,8.1,��
2020/04/07,00:10,0.687,0.986,0.663,1.197,0.857,0.396,0.691,0.656,��,9.0,��
2020/04/07,00:20,0.687,0.986,0.664,1.198,0.858,0.398,0.692,0.656,��,5.2,��
2020/04/07,00:30,0.685,0.986,0.664,1.195,0.858,0.396,0.690,0.656,��,3.5,��
2020/04/07,00:40,0.689,0.986,0.664,1.196,0.858,0.397,0.690,0.655,��,5.5,��
2020/04/07,00:50,0.686,0.988,0.665,1.198,0.856,0.398,0.692,0.656,��,7.6,��
2020/04/07,01:00,0.686,0.987,0.663,1.197,0.857,0.398,0.691,0.656,��,9.2,��
2020/04/07,01:10,0.688,0.987,0.666,1.198,0.858,0.396,0.691,0.656,��,8.3,��
2020/04/07,01:20,0.688,0.988,0.663,1.196,0.859,0.397,0.691,0.657,���k��,11.7,��
2020/04/07,01:30,0.686,0.987,0.665,1.199,0.857,0.396,0.690,0.656,���k��,9.9,��
2020/04/07,01:40,0.688,0.988,0.665,1.199,0.858,0.397,0.692,0.657,��,8.4,��
2020/04/07,01:50,0.688,0.988,0.666,1.198,0.858,0.397,0.691,0.656,��,8.9,��
2020/04/07,02:00,0.687,0.987,0.666,1.198,0.857,0.396,0.692,0.655,���k��,9.8,��
2020/04/07,02:10,0.687,0.989,0.664,1.199,0.857,0.398,0.691,0.656,���k��,10.5,��
2020/04/07,02:20,0.686,0.987,0.664,1.197,0.856,0.398,0.691,0.656,���k��,11.8,��
2020/04/07,02:30,0.686,0.986,0.663,1.196,0.856,0.396,0.690,0.656,��,12.4,��
2020/04/07,02:40,0.687,0.988,0.666,1.200,0.857,0.396,0.691,0.654,��,9.9,��
2020/04/07,02:50,0.688,0.988,0.664,1.196,0.859,0.398,0.691,0.656,��,11.3,��
2020/04/07,03:00,0.686,0.990,0.665,1.196,0.857,0.397,0.692,0.657,��,13.0,��
2020/04/07,03:10,0.687,0.987,0.664,1.198,0.857,0.398,0.692,0.656,��,10.5,��
2020/04/07,03:20,0.687,0.989,0.664,1.198,0.855,0.396,0.690,0.656,��,9.9,��
2020/04/07,03:30,0.688,0.989,0.664,1.197,0.857,0.396,0.690,0.656,���k��,10.2,��
2020/04/07,03:40,0.687,0.986,0.666,1.198,0.858,0.397,0.690,0.656,��,13.5,��
2020/04/07,03:50,0.687,0.989,0.665,1.199,0.856,0.397,0.691,0.655,��,11.1,��
2020/04/07,04:00,0.689,0.988,0.665,1.198,0.859,0.397,0.691,0.658,���k��,10.2,��
2020/04/07,04:10,0.688,0.989,0.664,1.199,0.858,0.397,0.691,0.656,���k��,8.2,��
2020/04/07,04:20,0.687,0.989,0.664,1.199,0.856,0.397,0.689,0.656,���k��,8.3,��
2020/04/07,04:30,0.688,0.988,0.665,1.200,0.857,0.396,0.692,0.658,���k��,7.8,��
2020/04/07,04:40,0.687,0.988,0.664,1.199,0.856,0.399,0.692,0.655,���k��,8.8,��
2020/04/07,04:50,0.688,0.988,0.666,1.200,0.857,0.398,0.691,0.655,���k��,9.9,��
2020/04/07,05:00,0.685,0.990,0.664,1.199,0.857,0.397,0.691,0.656,�k��,5.7,��
2020/04/07,05:10,0.687,0.988,0.666,1.200,0.857,0.397,0.690,0.655,�k��,4.4,��
2020/04/07,05:20,0.688,0.988,0.666,1.200,0.858,0.396,0.690,0.656,�k��,4.4,��
2020/04/07,05:30,0.687,0.987,0.666,1.199,0.857,0.397,0.689,0.656,�k��,4.9,��
2020/04/07,05:40,0.687,0.988,0.663,1.198,0.856,0.398,0.692,0.656,���k��,5.2,��
2020/04/07,05:50,0.687,0.990,0.664,1.200,0.858,0.398,0.692,0.656,�k��,5.6,��
2020/04/07,06:00,0.687,0.986,0.666,1.199,0.857,0.396,0.691,0.657,�k��,4.9,��
2020/04/07,06:10,0.689,0.989,0.665,1.198,0.857,0.397,0.691,0.655,���k��,5.4,��
2020/04/07,06:20,0.688,0.989,0.664,1.200,0.861,0.396,0.691,0.656,���k��,8.2,��
2020/04/07,06:30,0.685,0.988,0.665,1.198,0.857,0.396,0.693,0.657,�k��,7.7,��
2020/04/07,06:40,0.688,0.988,0.664,1.197,0.858,0.395,0.692,0.655,�k��,4.0,��
2020/04/07,06:50,0.685,0.989,0.665,1.198,0.855,0.396,0.692,0.656,�k�k��,2.6,��
2020/04/07,07:00,0.688,0.989,0.665,1.201,0.858,0.396,0.691,0.657,�k,2.0,��
2020/04/07,07:10,0.687,0.990,0.664,1.199,0.857,0.397,0.691,0.656,�k�k��,3.3,��
2020/04/07,07:20,0.688,0.991,0.665,1.198,0.856,0.396,0.692,0.657,�k,3.8,��
2020/04/07,07:30,0.689,0.991,0.665,1.199,0.857,0.396,0.691,0.657,�k��,4.7,��
2020/04/07,07:40,0.688,0.991,0.664,1.199,0.857,0.398,0.691,0.657,�k�k��,2.3,��
2020/04/07,07:50,0.689,0.989,0.663,1.201,0.858,0.397,0.692,0.656,�k��,3.9,��
2020/04/07,08:00,0.690,0.989,0.664,1.198,0.859,0.397,0.692,0.658,�k��,4.2,��
2020/04/07,08:10,0.689,0.988,0.667,1.199,0.859,0.397,0.692,0.657,�k��,3.4,��
2020/04/07,08:20,0.688,0.989,0.665,1.200,0.859,0.397,0.691,0.658,�k��,3.6,��
2020/04/07,08:30,0.691,0.984,0.665,1.200,0.857,0.395,0.690,0.658,�k��,4.2,��
2020/04/07,08:40,0.690,0.984,0.667,1.201,0.858,0.396,0.690,0.658,�k�k��,3.6,��
2020/04/07,08:50,0.690,0.985,0.666,1.202,0.857,0.394,0.689,0.656,�k�k��,2.6,��
2020/04/07,09:00,0.691,0.985,0.666,1.202,0.858,0.394,0.689,0.655,�쓌,3.3,��
2020/04/07,09:10,0.690,0.983,0.666,1.201,0.859,0.394,0.688,0.655,��,3.9,��
2020/04/07,09:20,0.690,0.984,0.666,1.201,0.858,0.396,0.690,0.655,��,3.2,��
2020/04/07,09:30,0.689,0.979,0.665,1.200,0.861,0.394,0.687,0.654,��,3.3,��
2020/04/07,09:40,0.688,0.982,0.666,1.201,0.859,0.394,0.689,0.655,���쓌,2.9,��
2020/04/07,09:50,0.688,0.984,0.666,1.201,0.860,0.395,0.691,0.656,�쓌,3.0,��
2020/04/07,10:00,0.689,0.982,0.666,1.204,0.860,0.396,0.690,0.654,���쓌,2.5,��
2020/04/07,10:10,0.690,0.983,0.667,1.202,0.859,0.395,0.689,0.653,�쓌,3.5,��
2020/04/07,10:20,0.690,0.986,0.667,1.202,0.859,0.396,0.690,0.654,�쓌,3.4,��
2020/04/07,10:30,0.689,0.985,0.665,1.201,0.855,0.394,0.690,0.653,�쓌,4.3,��
2020/04/07,10:40,0.691,0.985,0.666,1.200,0.857,0.395,0.689,0.654,�쓌,4.3,��
2020/04/07,10:50,0.688,0.983,0.666,1.201,0.858,0.395,0.690,0.654,��쓌,4.4,��
2020/04/07,11:00,0.690,0.984,0.666,1.201,0.857,0.396,0.691,0.654,��쓌,4.2,��
2020/04/07,11:10,0.689,0.984,0.666,1.204,0.856,0.396,0.691,0.653,��쓌,4.9,��
2020/04/07,11:20,0.690,0.987,0.666,1.202,0.857,0.395,0.690,0.654,�쓌,4.0,��
2020/04/07,11:30,0.690,0.988,0.666,1.202,0.857,0.396,0.691,0.655,��쓌,4.8,��
2020/04/07,11:40,0.689,0.986,0.665,1.204,0.859,0.394,0.691,0.654,�쓌,4.8,��
2020/04/07,11:50,0.689,0.991,0.666,1.200,0.859,0.396,0.689,0.655,��쓌,3.9,��
2020/04/07,12:00,0.688,0.990,0.665,1.203,0.860,0.396,0.690,0.654,�쓌,4.8,��
2020/04/07,12:10,0.690,0.992,0.665,1.202,0.861,0.395,0.691,0.655,��쓌,5.7,��
2020/04/07,12:20,0.687,0.993,0.666,1.205,0.862,0.396,0.692,0.655,��쓌,5.2,��
2020/04/07,12:30,0.689,0.993,0.667,1.204,0.860,0.397,0.693,0.655,��쓌,6.2,��
2020/04/07,12:40,0.689,0.995,0.667,1.204,0.859,0.396,0.692,0.656,��쓌,4.2,��
2020/04/07,12:50,0.689,0.992,0.664,1.204,0.860,0.397,0.690,0.654,��쓌,4.6,��
2020/04/07,13:00,0.690,0.989,0.665,1.205,0.862,0.396,0.691,0.656,�쓌,3.7,��
2020/04/07,13:10,0.691,0.991,0.664,1.204,0.862,0.396,0.691,0.655,��쓌,4.8,��
2020/04/07,13:20,0.690,0.990,0.665,1.203,0.861,0.397,0.692,0.654,��쓌,3.5,��
2020/04/07,13:30,0.691,0.990,0.665,1.204,0.863,0.396,0.692,0.654,�쓌,4.5,��
2020/04/07,13:40,0.687,0.987,0.662,1.203,0.861,0.397,0.692,0.654,��쓌,4.5,��
2020/04/07,13:50,0.689,0.989,0.664,1.203,0.862,0.398,0.690,0.655,�쓌,5.5,��
2020/04/07,14:00,0.689,0.993,0.666,1.204,0.860,0.397,0.691,0.654,�쓌,3.5,��
2020/04/07,14:10,0.690,0.989,0.665,1.203,0.862,0.398,0.692,0.657,��쓌,4.2,��
2020/04/07,14:20,0.690,0.992,0.666,1.204,0.862,0.396,0.690,0.655,�쓌,3.4,��
2020/04/07,14:30,0.689,0.989,0.667,1.204,0.864,0.396,0.692,0.655,�쓌,3.6,��
2020/04/07,14:40,0.689,0.992,0.665,1.205,0.864,0.398,0.691,0.656,��쓌,4.7,��
2020/04/07,14:50,0.690,0.992,0.666,1.207,0.863,0.398,0.693,0.656,��쓌,4.6,��
2020/04/07,15:00,0.689,0.994,0.666,1.205,0.862,0.398,0.692,0.655,��쓌,5.2,��
2020/04/07,15:10,0.687,0.995,0.668,1.203,0.860,0.399,0.691,0.656,��쓌,5.6,��
2020/04/07,15:20,0.691,0.994,0.666,1.205,0.863,0.399,0.692,0.655,��쓌,6.0,��
2020/04/07,15:30,0.688,0.995,0.666,1.204,0.863,0.398,0.689,0.655,��쓌,6.4,��
2020/04/07,15:40,0.691,0.997,0.668,1.204,0.864,0.398,0.693,0.655,��쓌,5.7,��
2020/04/07,15:50,0.690,0.997,0.669,1.203,0.861,0.398,0.691,0.655,��쓌,5.9,��
2020/04/07,16:00,0.692,0.998,0.668,1.205,0.863,0.399,0.692,0.656,��쓌,4.6,��
2020/04/07,16:10,0.692,0.997,0.668,1.203,0.866,0.399,0.690,0.656,��쓌,6.8,��
2020/04/07,16:20,0.693,1.001,0.670,1.206,0.864,0.399,0.690,0.655,��쓌,6.3,��
2020/04/07,16:30,0.695,0.998,0.669,1.206,0.863,0.398,0.691,0.656,��쓌,5.8,��
2020/04/07,16:40,0.695,0.999,0.670,1.203,0.863,0.400,0.691,0.657,��쓌,5.4,��
2020/04/07,16:50,0.694,1.001,0.671,1.206,0.865,0.400,0.691,0.655,��쓌,6.0,��
2020/04/07,17:00,0.694,0.999,0.669,1.205,0.866,0.400,0.691,0.657,��쓌,4.9,��
2020/04/07,17:10,0.692,1.001,0.670,1.205,0.865,0.400,0.693,0.656,��쓌,5.0,��
2020/04/07,17:20,0.692,0.998,0.670,1.205,0.863,0.398,0.692,0.658,��쓌,3.7,��
2020/04/07,17:30,0.693,1.001,0.670,1.205,0.863,0.400,0.691,0.658,��쓌,2.9,��
2020/04/07,17:40,0.693,1.001,0.669,1.204,0.867,0.399,0.692,0.657,��쓌,3.4,��
2020/04/07,17:50,0.694,1.002,0.669,1.204,0.864,0.400,0.691,0.657,��쓌,5.0,��
2020/04/07,18:00,0.693,0.999,0.669,1.203,0.863,0.399,0.692,0.658,��쓌,4.4,��
2020/04/07,18:10,0.693,1.001,0.668,1.204,0.866,0.400,0.692,0.657,��쓌,4.2,��
2020/04/07,18:20,0.693,0.998,0.669,1.204,0.866,0.399,0.692,0.658,��쓌,3.6,��
2020/04/07,18:30,0.692,1.000,0.668,1.206,0.865,0.400,0.693,0.657,��쓌,3.8,��
2020/04/07,18:40,0.693,1.000,0.669,1.205,0.864,0.399,0.693,0.657,��쓌,4.2,��
2020/04/07,18:50,0.692,0.998,0.670,1.206,0.865,0.398,0.694,0.655,��쓌,5.1,��
2020/04/07,19:00,0.693,1.000,0.669,1.204,0.865,0.399,0.693,0.657,��,5.2,��
2020/04/07,19:10,0.694,1.000,0.670,1.206,0.865,0.399,0.693,0.657,��,5.3,��
2020/04/07,19:20,0.692,1.000,0.668,1.203,0.865,0.399,0.693,0.657,��,5.7,��
2020/04/07,19:30,0.692,0.998,0.667,1.206,0.866,0.399,0.692,0.658,��,5.2,��
2020/04/07,19:40,0.690,0.998,0.670,1.204,0.867,0.400,0.694,0.658,��,4.8,��
2020/04/07,19:50,0.691,0.997,0.669,1.202,0.864,0.401,0.691,0.657,��쐼,4.1,��
2020/04/07,20:00,0.693,1.000,0.669,1.205,0.863,0.398,0.693,0.657,��,4.2,��
2020/04/07,20:10,0.692,0.996,0.670,1.207,0.864,0.400,0.693,0.658,��,4.4,��
2020/04/07,20:20,0.691,0.998,0.669,1.204,0.864,0.400,0.694,0.657,��,4.3,��
2020/04/07,20:30,0.690,0.998,0.669,1.203,0.865,0.399,0.693,0.657,��,4.3,��
2020/04/07,20:40,0.689,0.999,0.669,1.205,0.865,0.399,0.693,0.656,��쐼,3.2,��
2020/04/07,20:50,0.690,0.999,0.670,1.206,0.863,0.398,0.693,0.657,��,3.0,��
2020/04/07,21:00,0.692,0.998,0.668,1.203,0.863,0.399,0.691,0.657,��,3.2,��
2020/04/07,21:10,0.693,0.999,0.670,1.207,0.865,0.399,0.692,0.656,��,3.5,��
2020/04/07,21:20,0.691,0.999,0.669,1.202,0.864,0.399,0.693,0.656,��,3.2,��
2020/04/07,21:30,0.694,0.998,0.667,1.205,0.862,0.398,0.693,0.658,��,2.6,��
2020/04/07,21:40,0.690,0.997,0.668,1.204,0.863,0.398,0.692,0.658,��,2.2,��
2020/04/07,21:50,0.692,0.997,0.667,1.206,0.864,0.400,0.691,0.657,��쐼,2.2,��
2020/04/07,22:00,0.691,0.999,0.668,1.206,0.866,0.399,0.693,0.655,��,2.5,��
2020/04/07,22:10,0.691,1.000,0.668,1.206,0.864,0.398,0.693,0.656,��,2.0,��
2020/04/07,22:20,0.690,0.997,0.668,1.206,0.865,0.398,0.693,0.656,��,2.6,��
2020/04/07,22:30,0.691,0.998,0.668,1.205,0.867,0.399,0.693,0.655,��쐼,2.3,��
2020/04/07,22:40,0.692,0.998,0.670,1.206,0.865,0.398,0.690,0.656,���쐼,2.3,��
2020/04/07,22:50,0.691,0.996,0.667,1.207,0.865,0.398,0.692,0.656,�쐼,2.3,��
2020/04/07,23:00,0.693,0.997,0.668,1.204,0.863,0.398,0.691,0.657,��쐼,2.6,��
2020/04/07,23:10,0.690,0.998,0.667,1.206,0.864,0.397,0.693,0.657,�쐼,3.2,��
2020/04/07,23:20,0.691,0.997,0.669,1.207,0.866,0.397,0.692,0.654,�쐼,3.2,��
2020/04/07,23:30,0.692,0.997,0.668,1.205,0.866,0.398,0.693,0.658,�쐼,2.6,��
2020/04/07,23:40,0.691,0.998,0.670,1.206,0.863,0.396,0.692,0.657,�쐼,3.6,��
2020/04/07,23:50,0.691,0.996,0.667,1.205,0.865,0.397,0.693,0.656,��쐼,3.4,��
